﻿_id,日時,平均風速(m/s),平均風向,最大瞬間風速(m/s),最大風速時風向,気温(℃),湿度(%),10分間移動積算雨量(mm),1時間移動積算雨量(mm),日雨量(mm),累計雨量(mm)
1,2022-02-21T00:00:00,0,静穏,0,東,-0.4,94.3,0,0,1.5,12
2,2022-02-21T00:01:00,0,静穏,0,東,-0.5,94.2,0,0,0,12
3,2022-02-21T00:02:00,0,静穏,0,東,-0.5,94.2,0,0,0,12
4,2022-02-21T00:03:00,0,静穏,0,北東,-0.5,94.2,0,0,0,12
5,2022-02-21T00:04:00,0,静穏,0,北東,-0.5,94.2,0,0,0,12
6,2022-02-21T00:05:00,0,静穏,0,北東,-0.5,94.1,0,0,0,12
7,2022-02-21T00:06:00,0,静穏,0,北東,-0.5,94.2,0,0,0,12
8,2022-02-21T00:07:00,0,静穏,0,北東,-0.5,94.2,0,0,0,12
9,2022-02-21T00:08:00,0,静穏,0,北東,-0.5,94.3,0,0,0,12
10,2022-02-21T00:09:00,0,静穏,0,北東,-0.6,94.2,0,0,0,12
11,2022-02-21T00:10:00,0,静穏,0,北東,-0.5,94.1,0,0,0,12
12,2022-02-21T00:11:00,0,静穏,0,北東,-0.5,94.2,0,0,0,12
13,2022-02-21T00:12:00,0,静穏,0,北東,-0.5,94.4,0,0,0,12
14,2022-02-21T00:13:00,0,静穏,0,東北東,-0.5,94.4,0,0,0,12
15,2022-02-21T00:14:00,0,静穏,0,東北東,-0.5,94.3,0,0,0,12
16,2022-02-21T00:15:00,0,静穏,0,東北東,-0.5,94.4,0,0,0,12
17,2022-02-21T00:16:00,0,静穏,0,東北東,-0.6,94.3,0,0,0,12
18,2022-02-21T00:17:00,0,静穏,0,東北東,-0.7,94.1,0,0,0,12
19,2022-02-21T00:18:00,0,静穏,0,東北東,-0.7,94,0,0,0,12
20,2022-02-21T00:19:00,0,静穏,0,東北東,-0.8,93.8,0,0,0,12
21,2022-02-21T00:20:00,0,静穏,0,東北東,-0.8,93.8,0,0,0,12
22,2022-02-21T00:21:00,0,静穏,0,東北東,-0.7,94,0,0,0,12
23,2022-02-21T00:22:00,0,静穏,0,東北東,-0.7,94.2,0,0,0,12
24,2022-02-21T00:23:00,0,静穏,0,東南東,-0.7,94.3,0,0,0,12
25,2022-02-21T00:24:00,0,静穏,0,東南東,-0.7,94.4,0,0,0,12
26,2022-02-21T00:25:00,0,静穏,0,東南東,-0.6,94.4,0,0,0,12
27,2022-02-21T00:26:00,0,静穏,0,東南東,-0.6,94.4,0,0,0,12
28,2022-02-21T00:27:00,0,静穏,0,東南東,-0.7,94.4,0,0,0,12
29,2022-02-21T00:28:00,0,静穏,0,東南東,-0.6,94.4,0,0,0,12
30,2022-02-21T00:29:00,0,静穏,0,東南東,-0.6,94.5,0,0,0,12
31,2022-02-21T00:30:00,0,静穏,0,東南東,-0.7,94.4,0,0,0,12
32,2022-02-21T00:31:00,0,静穏,0,東南東,-0.8,94.1,0,0,0,12
33,2022-02-21T00:32:00,0,静穏,0,東南東,-0.8,94,0,0,0,12
34,2022-02-21T00:33:00,0,静穏,0,南南西,-0.8,94.1,0,0,0,12
35,2022-02-21T00:34:00,0,静穏,0,南南西,-0.7,94.2,0,0,0,12
36,2022-02-21T00:35:00,0,静穏,0,南南西,-0.7,94.4,0,0,0,12
37,2022-02-21T00:36:00,0,静穏,0,南南西,-0.6,94.6,0,0,0,12
38,2022-02-21T00:37:00,0,静穏,0,南南西,-0.6,94.6,0,0,0,12
39,2022-02-21T00:38:00,0,静穏,0,南南西,-0.7,94.6,0,0,0,12
40,2022-02-21T00:39:00,0,静穏,0,南南西,-0.6,94.5,0,0,0,12
41,2022-02-21T00:40:00,0,静穏,0,南南西,-0.6,94.7,0,0,0,12
42,2022-02-21T00:41:00,0,静穏,0,南南西,-0.7,94.6,0,0,0,12
43,2022-02-21T00:42:00,0,静穏,0,南南西,-0.8,94.1,0,0,0,12
44,2022-02-21T00:43:00,0,静穏,0,西南西,-0.8,94.1,0,0,0,12
45,2022-02-21T00:44:00,0,静穏,0,西南西,-0.8,94,0,0,0,12
46,2022-02-21T00:45:00,0,静穏,0,西南西,-0.8,94.1,0,0,0,12
47,2022-02-21T00:46:00,0,静穏,0,西南西,-0.7,94.4,0,0,0,12
48,2022-02-21T00:47:00,0,静穏,0.1,東,-0.7,94.5,0,0,0,12
49,2022-02-21T00:48:00,0,静穏,0.1,東,-0.7,94.5,0,0,0,12
50,2022-02-21T00:49:00,0,静穏,0.1,東,-0.6,94.5,0,0,0,12
51,2022-02-21T00:50:00,0,静穏,0.1,東,-0.6,94.7,0,0,0,12
52,2022-02-21T00:51:00,0,静穏,0.1,東,-0.6,94.8,0,0,0,12
53,2022-02-21T00:52:00,0,静穏,0.1,東,-0.6,94.8,0,0,0,12
54,2022-02-21T00:53:00,0,静穏,0.1,東,-0.6,94.7,0,0,0,12
55,2022-02-21T00:54:00,0,静穏,0.1,東,-0.7,94.4,0,0,0,12
56,2022-02-21T00:55:00,0,静穏,0.1,東,-0.6,94.4,0,0,0,12
57,2022-02-21T00:56:00,0,静穏,0.1,東,-0.6,94.6,0,0,0,12
58,2022-02-21T00:57:00,0,静穏,0,北北東,-0.6,94.5,0,0,0,12
59,2022-02-21T00:58:00,0,静穏,0,北北東,-0.6,94.6,0,0,0,12
60,2022-02-21T00:59:00,0,静穏,0,北北東,-0.5,94.7,0,0,0,12
61,2022-02-21T01:00:00,0,静穏,0,北北東,-0.5,94.6,0,0,0,12
62,2022-02-21T01:01:00,0,静穏,0,北北東,-0.5,94.6,0,0,0,12
63,2022-02-21T01:02:00,0,静穏,0,北北東,-0.5,94.5,0,0,0,12
64,2022-02-21T01:03:00,0,静穏,0.1,北北東,-0.6,94.5,0,0,0,12
65,2022-02-21T01:04:00,0,静穏,0.1,北北東,-0.6,94.5,0,0,0,12
66,2022-02-21T01:05:00,0,静穏,0.1,北北東,-0.6,94.4,0,0,0,12
67,2022-02-21T01:06:00,0,静穏,0.1,北北東,-0.7,94.3,0,0,0,12
68,2022-02-21T01:07:00,0,静穏,0.1,北北東,-0.7,94.3,0,0,0,12
69,2022-02-21T01:08:00,0,静穏,0.1,北北東,-0.7,94.3,0,0,0,12
70,2022-02-21T01:09:00,0,静穏,0.1,北北東,-0.6,94.4,0,0,0,12
71,2022-02-21T01:10:00,0,静穏,0.1,北北東,-0.6,94.5,0,0,0,12
72,2022-02-21T01:11:00,0,静穏,0.1,北北東,-0.5,94.6,0,0,0,12
73,2022-02-21T01:12:00,0,静穏,0.1,北北東,-0.5,94.7,0,0,0,12
74,2022-02-21T01:13:00,0,静穏,0,東南東,-0.5,94.8,0,0,0,12
75,2022-02-21T01:14:00,0,静穏,0,東南東,-0.6,94.7,0.5,0.5,0.5,12.5
76,2022-02-21T01:15:00,0,静穏,0,東南東,-0.6,94.5,0.5,0.5,0.5,12.5
77,2022-02-21T01:16:00,0,静穏,0,東南東,-0.6,94.4,0.5,0.5,0.5,12.5
78,2022-02-21T01:17:00,0,静穏,0,東南東,-0.5,94.6,0.5,0.5,0.5,12.5
79,2022-02-21T01:18:00,0,静穏,0,東南東,-0.6,94.7,0.5,0.5,0.5,12.5
80,2022-02-21T01:19:00,0,静穏,0,東南東,-0.6,94.5,0.5,0.5,0.5,12.5
81,2022-02-21T01:20:00,0,静穏,0,東南東,-0.6,94.4,0.5,0.5,0.5,12.5
82,2022-02-21T01:21:00,0,静穏,0,東南東,-0.6,94.4,0.5,0.5,0.5,12.5
83,2022-02-21T01:22:00,0,静穏,0,東南東,-0.6,94.4,0.5,0.5,0.5,12.5
84,2022-02-21T01:23:00,0,静穏,0,南南東,-0.7,94.5,0.5,0.5,0.5,12.5
85,2022-02-21T01:24:00,0,静穏,0,南南東,-0.7,94.4,0,0.5,0.5,12.5
86,2022-02-21T01:25:00,0,静穏,0,南南東,-0.7,94.3,0,0.5,0.5,12.5
87,2022-02-21T01:26:00,0,静穏,0,南南東,-0.6,94.5,0,0.5,0.5,12.5
88,2022-02-21T01:27:00,0,静穏,0,南南東,-0.7,94.5,0,0.5,0.5,12.5
89,2022-02-21T01:28:00,0,静穏,0,南南東,-0.7,94.4,0,0.5,0.5,12.5
90,2022-02-21T01:29:00,0,静穏,0,南南東,-0.7,94.4,0,0.5,0.5,12.5
91,2022-02-21T01:30:00,0,静穏,0,南南東,-0.8,94.2,0,0.5,0.5,12.5
92,2022-02-21T01:31:00,0,静穏,0,南南東,-0.8,94.2,0,0.5,0.5,12.5
93,2022-02-21T01:32:00,0,静穏,0,南南東,-0.9,94.1,0,0.5,0.5,12.5
94,2022-02-21T01:33:00,0,静穏,0,東南東,-0.9,94,0,0.5,0.5,12.5
95,2022-02-21T01:34:00,0,静穏,0,東南東,-0.9,94,0,0.5,0.5,12.5
96,2022-02-21T01:35:00,0,静穏,0,東南東,-0.9,94.2,0,0.5,0.5,12.5
97,2022-02-21T01:36:00,0,静穏,0,東南東,-1,94.2,0,0.5,0.5,12.5
98,2022-02-21T01:37:00,0,静穏,0,東南東,-1,94.2,0,0.5,0.5,12.5
99,2022-02-21T01:38:00,0,静穏,0,東南東,-0.9,94.3,0,0.5,0.5,12.5
100,2022-02-21T01:39:00,0,静穏,0,東南東,-1,94.3,0.5,1,1,13
101,2022-02-21T01:40:00,0,静穏,0,東南東,-1,94.3,0.5,1,1,13
102,2022-02-21T01:41:00,0,静穏,0,東南東,-1,94.3,0.5,1,1,13
103,2022-02-21T01:42:00,0,静穏,0,東南東,-0.9,94.5,0.5,1,1,13
104,2022-02-21T01:43:00,0,静穏,0,東南東,-0.9,94.5,0.5,1,1,13
105,2022-02-21T01:44:00,0,静穏,0,東南東,-0.9,94.4,0.5,1,1,13
106,2022-02-21T01:45:00,0,静穏,0,東南東,-0.9,94.4,0.5,1,1,13
107,2022-02-21T01:46:00,0,静穏,0,東南東,-0.9,94.5,0.5,1,1,13
108,2022-02-21T01:47:00,0,静穏,0,東南東,-0.8,94.7,0.5,1,1,13
109,2022-02-21T01:48:00,0,静穏,0,東南東,-0.8,94.8,0.5,1,1,13
110,2022-02-21T01:49:00,0,静穏,0,東南東,-0.8,94.8,0,1,1,13
111,2022-02-21T01:50:00,0,静穏,0,東南東,-0.7,94.8,0,1,1,13
112,2022-02-21T01:51:00,0,静穏,0,東南東,-0.7,94.9,0,1,1,13
113,2022-02-21T01:52:00,0,静穏,0,東南東,-0.7,94.7,0,1,1,13
114,2022-02-21T01:53:00,0,静穏,0,南南東,-0.7,94.8,0,1,1,13
115,2022-02-21T01:54:00,0,静穏,0,南南東,-0.7,94.7,0,1,1,13
116,2022-02-21T01:55:00,0,静穏,0,南南東,-0.8,94.7,0,1,1,13
117,2022-02-21T01:56:00,0,静穏,0,南南東,-0.8,94.5,0,1,1,13
118,2022-02-21T01:57:00,0,静穏,0,南南東,-0.8,94.4,0,1,1,13
119,2022-02-21T01:58:00,0,静穏,0,南南東,-0.7,94.5,0,1,1,13
120,2022-02-21T01:59:00,0,静穏,0,南南東,-0.8,94.6,0,1,1,13
121,2022-02-21T02:00:00,0,静穏,0,南南東,-0.8,94.5,0,1,1,13
122,2022-02-21T02:01:00,0,静穏,0,南南東,-0.9,94.4,0,1,1,13
123,2022-02-21T02:02:00,0,静穏,0,南南東,-0.9,94.4,0,1,1,13
124,2022-02-21T02:03:00,0,静穏,0,西南西,-0.9,94.3,0,1,1,13
125,2022-02-21T02:04:00,0,静穏,0,西南西,-0.9,94.4,0,1,1,13
126,2022-02-21T02:05:00,0,静穏,0,西南西,-0.9,94.4,0,1,1,13
127,2022-02-21T02:06:00,0,静穏,0,西南西,-0.8,94.4,0,1,1,13
128,2022-02-21T02:07:00,0,静穏,0,西南西,-0.8,94.6,0,1,1,13
129,2022-02-21T02:08:00,0,静穏,0,西南西,-0.8,94.6,0,1,1,13
130,2022-02-21T02:09:00,0,静穏,0,西南西,-0.9,94.6,0,1,1,13
131,2022-02-21T02:10:00,0,静穏,0,西南西,-0.9,94.4,0,1,1,13
132,2022-02-21T02:11:00,0,静穏,0,西南西,-0.9,94.4,0,1,1,13
133,2022-02-21T02:12:00,0,静穏,0,西南西,-0.9,94.4,0,1,1,13
134,2022-02-21T02:13:00,0,静穏,0,南西,-0.7,94.6,0,1,1,13
135,2022-02-21T02:14:00,0,静穏,0,南西,-0.9,94.8,0,0.5,1,13
136,2022-02-21T02:15:00,0,静穏,0,南西,-0.9,94.5,0,0.5,1,13
137,2022-02-21T02:16:00,0,静穏,0,南西,-0.9,94.5,0,0.5,1,13
138,2022-02-21T02:17:00,0,静穏,0,南西,-0.8,94.5,0,0.5,1,13
139,2022-02-21T02:18:00,0,静穏,0,南西,-0.8,94.6,0,0.5,1,13
140,2022-02-21T02:19:00,0,静穏,0,南西,-0.8,94.7,0,0.5,1,13
141,2022-02-21T02:20:00,0,静穏,0,南西,-0.8,94.7,0,0.5,1,13
142,2022-02-21T02:21:00,0,静穏,0,南西,-0.9,94.6,0,0.5,1,13
143,2022-02-21T02:22:00,0,静穏,0,南西,-1,94.3,0,0.5,1,13
144,2022-02-21T02:23:00,0,静穏,0,西南西,-0.9,94.3,0,0.5,1,13
145,2022-02-21T02:24:00,0,静穏,0,西南西,-1,94.3,0,0.5,1,13
146,2022-02-21T02:25:00,0,静穏,0,西南西,-0.9,94.2,0,0.5,1,13
147,2022-02-21T02:26:00,0,静穏,0,西南西,-0.9,94.4,0,0.5,1,13
148,2022-02-21T02:27:00,0,静穏,0,西南西,-0.8,94.6,0.5,1,1.5,13.5
149,2022-02-21T02:28:00,0,静穏,0,西南西,-0.9,94.6,0.5,1,1.5,13.5
150,2022-02-21T02:29:00,0,静穏,0,西南西,-0.9,94.5,0.5,1,1.5,13.5
151,2022-02-21T02:30:00,0,静穏,0.1,南南東,-0.9,94.5,0.5,1,1.5,13.5
152,2022-02-21T02:31:00,0,静穏,0.1,南南東,-0.9,94.6,0.5,1,1.5,13.5
153,2022-02-21T02:32:00,0,静穏,0.1,南南東,-0.8,94.7,0.5,1,1.5,13.5
154,2022-02-21T02:33:00,0,静穏,0.1,南南東,-0.9,94.7,0.5,1,1.5,13.5
155,2022-02-21T02:34:00,0,静穏,0.1,南南東,-0.9,94.6,0.5,1,1.5,13.5
156,2022-02-21T02:35:00,0,静穏,0.1,南南東,-0.9,94.5,0.5,1,1.5,13.5
157,2022-02-21T02:36:00,0,静穏,0.1,南南東,-1,94.4,0.5,1,1.5,13.5
158,2022-02-21T02:37:00,0,静穏,0.1,南南東,-0.9,94.5,0,1,1.5,13.5
159,2022-02-21T02:38:00,0,静穏,0.1,南南東,-0.9,94.5,0,1,1.5,13.5
160,2022-02-21T02:39:00,0,静穏,0.1,南南東,-1,94.4,0,0.5,1.5,13.5
161,2022-02-21T02:40:00,0,静穏,0,東,-0.9,94.4,0,0.5,1.5,13.5
162,2022-02-21T02:41:00,0,静穏,0,東,-0.9,94.6,0,0.5,1.5,13.5
163,2022-02-21T02:42:00,0,静穏,0,東,-0.9,94.8,0,0.5,1.5,13.5
164,2022-02-21T02:43:00,0,静穏,0,東,-0.9,94.7,0,0.5,1.5,13.5
165,2022-02-21T02:44:00,0,静穏,0,東,-0.9,94.7,0,0.5,1.5,13.5
166,2022-02-21T02:45:00,0,静穏,0,東,-1,94.5,0,0.5,1.5,13.5
167,2022-02-21T02:46:00,0,静穏,0,東,-1,94.3,0,0.5,1.5,13.5
168,2022-02-21T02:47:00,0,静穏,0,東,-1,94.3,0,0.5,1.5,13.5
169,2022-02-21T02:48:00,0,静穏,0,東,-1.1,94.3,0,0.5,1.5,13.5
170,2022-02-21T02:49:00,0,静穏,0,東,-1.1,94.2,0,0.5,1.5,13.5
171,2022-02-21T02:50:00,0,静穏,0,東北東,-1.1,94.2,0,0.5,1.5,13.5
172,2022-02-21T02:51:00,0,静穏,0,東北東,-1.1,94.3,0,0.5,1.5,13.5
173,2022-02-21T02:52:00,0,静穏,0,東北東,-1.2,94.2,0,0.5,1.5,13.5
174,2022-02-21T02:53:00,0,静穏,0,東北東,-1.2,94.2,0,0.5,1.5,13.5
175,2022-02-21T02:54:00,0,静穏,0,東北東,-1.1,94.3,0,0.5,1.5,13.5
176,2022-02-21T02:55:00,0,静穏,0,東北東,-1.1,94.5,0,0.5,1.5,13.5
177,2022-02-21T02:56:00,0,静穏,0,東北東,-1.1,94.5,0,0.5,1.5,13.5
178,2022-02-21T02:57:00,0,静穏,0,東北東,-1.2,94.5,0,0.5,1.5,13.5
179,2022-02-21T02:58:00,0,静穏,0,東北東,-1.1,94.4,0,0.5,1.5,13.5
180,2022-02-21T02:59:00,0,静穏,0,東北東,-1.2,94.5,0,0.5,1.5,13.5
181,2022-02-21T03:00:00,0,静穏,0,南南東,-1.1,94.5,0,0.5,1.5,13.5
182,2022-02-21T03:01:00,0,静穏,0,南南東,-1.1,94.7,0,0.5,1.5,13.5
183,2022-02-21T03:02:00,0,静穏,0,南南東,-1.1,94.6,0,0.5,1.5,13.5
184,2022-02-21T03:03:00,0,静穏,0,南南東,-1.1,94.5,0,0.5,1.5,13.5
185,2022-02-21T03:04:00,0,静穏,0,南南東,-1.1,94.4,0,0.5,1.5,13.5
186,2022-02-21T03:05:00,0,静穏,0,南南東,-1.1,94.4,0,0.5,1.5,13.5
187,2022-02-21T03:06:00,0,静穏,0,南南東,-1.1,94.5,0,0.5,1.5,13.5
188,2022-02-21T03:07:00,0,静穏,0,南南東,-1.1,94.5,0,0.5,1.5,13.5
189,2022-02-21T03:08:00,0,静穏,0,南南東,-1.1,94.5,0,0.5,1.5,13.5
190,2022-02-21T03:09:00,0,静穏,0,南南東,-1.1,94.5,0,0.5,1.5,13.5
191,2022-02-21T03:10:00,0,静穏,0,南南東,-1.1,94.5,0,0.5,1.5,13.5
192,2022-02-21T03:11:00,0,静穏,0,南南東,-1.1,94.5,0,0.5,1.5,13.5
193,2022-02-21T03:12:00,0,静穏,0,南南東,-1.1,94.4,0,0.5,1.5,13.5
194,2022-02-21T03:13:00,0,静穏,0,南南東,-1.1,94.4,0,0.5,1.5,13.5
195,2022-02-21T03:14:00,0,静穏,0,南南東,-1.1,94.4,0,0.5,1.5,13.5
196,2022-02-21T03:15:00,0,静穏,0,南南東,-1.1,94.3,0,0.5,1.5,13.5
197,2022-02-21T03:16:00,0,静穏,0,南南東,-1.1,94.4,0,0.5,1.5,13.5
198,2022-02-21T03:17:00,0,静穏,0,南南東,-1.1,94.5,0,0.5,1.5,13.5
199,2022-02-21T03:18:00,0,静穏,0,南南東,-1.1,94.5,0,0.5,1.5,13.5
200,2022-02-21T03:19:00,0,静穏,0,南南東,-1.2,94.3,0,0.5,1.5,13.5
201,2022-02-21T03:20:00,0,静穏,0,東南東,-1.2,94.2,0,0.5,1.5,13.5
202,2022-02-21T03:21:00,0,静穏,0,東南東,-1.2,94.2,0,0.5,1.5,13.5
203,2022-02-21T03:22:00,0,静穏,0,東南東,-1.1,94.3,0,0.5,1.5,13.5
204,2022-02-21T03:23:00,0,静穏,0,東南東,-1.2,94.3,0,0.5,1.5,13.5
205,2022-02-21T03:24:00,0,静穏,0,東南東,-1.2,94.4,0,0.5,1.5,13.5
206,2022-02-21T03:25:00,0,静穏,0,東南東,-1.2,94.2,0,0.5,1.5,13.5
207,2022-02-21T03:26:00,0,静穏,0,東南東,-1.2,94.1,0,0.5,1.5,13.5
208,2022-02-21T03:27:00,0,静穏,0,東南東,-1.2,94.2,0,0,1.5,13.5
209,2022-02-21T03:28:00,0,静穏,0,東南東,-1.1,94.3,0,0,1.5,13.5
210,2022-02-21T03:29:00,0,静穏,0,東南東,-1.2,94.4,0,0,1.5,13.5
211,2022-02-21T03:30:00,0,静穏,0,南東,-1.1,94.5,0,0,1.5,13.5
212,2022-02-21T03:31:00,0,静穏,0,南東,-1.1,94.4,0,0,1.5,13.5
213,2022-02-21T03:32:00,0,静穏,0,南東,-1,94.4,0,0,1.5,13.5
214,2022-02-21T03:33:00,0,静穏,0,南東,-1,94.5,0,0,1.5,13.5
215,2022-02-21T03:34:00,0,静穏,0,南東,-1,94.5,0,0,1.5,13.5
216,2022-02-21T03:35:00,0,静穏,0,南東,-1,94.5,0,0,1.5,13.5
217,2022-02-21T03:36:00,0,静穏,0,南東,-1,94.4,0,0,1.5,13.5
218,2022-02-21T03:37:00,0,静穏,0,南東,-1.1,94.3,0,0,1.5,13.5
219,2022-02-21T03:38:00,0,静穏,0,南東,-1,94.2,0,0,1.5,13.5
220,2022-02-21T03:39:00,0,静穏,0,南東,-1,94.2,0,0,1.5,13.5
221,2022-02-21T03:40:00,0,静穏,0,南南西,-1.1,94.2,0,0,1.5,13.5
222,2022-02-21T03:41:00,0,静穏,0,南南西,-1.1,94,0,0,1.5,13.5
223,2022-02-21T03:42:00,0,静穏,0,南南西,-1.1,94,0,0,1.5,13.5
224,2022-02-21T03:43:00,0,静穏,0,南南西,-1.1,93.9,0,0,1.5,13.5
225,2022-02-21T03:44:00,0,静穏,0,南南西,-1.2,93.9,0,0,1.5,13.5
226,2022-02-21T03:45:00,0,静穏,0,南南西,-1.2,93.7,0,0,1.5,13.5
227,2022-02-21T03:46:00,0,静穏,0,南南西,-1.3,93.6,0,0,1.5,13.5
228,2022-02-21T03:47:00,0,静穏,0,南南西,-1.3,93.6,0,0,1.5,13.5
229,2022-02-21T03:48:00,0,静穏,0,南南西,-1.4,93.6,0,0,1.5,13.5
230,2022-02-21T03:49:00,0,静穏,0,南南西,-1.4,93.4,0,0,1.5,13.5
231,2022-02-21T03:50:00,0,静穏,0,南東,-1.4,93.3,0,0,1.5,13.5
232,2022-02-21T03:51:00,0,静穏,0,南東,-1.5,93.3,0,0,1.5,13.5
233,2022-02-21T03:52:00,0,静穏,0,南東,-1.5,93.2,0,0,1.5,13.5
234,2022-02-21T03:53:00,0,静穏,0,南東,-1.5,93.3,0,0,1.5,13.5
235,2022-02-21T03:54:00,0,静穏,0,南東,-1.6,93.2,0,0,1.5,13.5
236,2022-02-21T03:55:00,0,静穏,0,南東,-1.7,93,0,0,1.5,13.5
237,2022-02-21T03:56:00,0,静穏,0,南東,-1.8,92.6,0,0,1.5,13.5
238,2022-02-21T03:57:00,0,静穏,0,南東,-1.9,92.3,0,0,1.5,13.5
239,2022-02-21T03:58:00,0,静穏,0,南東,-2,92.3,0,0,1.5,13.5
240,2022-02-21T03:59:00,0,静穏,0,南東,-2,92.2,0,0,1.5,13.5
241,2022-02-21T04:00:00,0,静穏,0,北東,-2,92.5,0,0,1.5,13.5
242,2022-02-21T04:01:00,0,静穏,0,北東,-2,92.7,0,0,1.5,13.5
243,2022-02-21T04:02:00,0,静穏,0,北東,-2,92.7,0,0,1.5,13.5
244,2022-02-21T04:03:00,0,静穏,0,北東,-2,92.7,0,0,1.5,13.5
245,2022-02-21T04:04:00,0,静穏,0,北東,-2,92.9,0,0,1.5,13.5
246,2022-02-21T04:05:00,0,静穏,0,北東,-2,92.9,0,0,1.5,13.5
247,2022-02-21T04:06:00,0,静穏,0,北東,-2,93,0,0,1.5,13.5
248,2022-02-21T04:07:00,0,静穏,0,北東,-2,92.9,0,0,1.5,13.5
249,2022-02-21T04:08:00,0,静穏,0,北東,-2,93,0,0,1.5,13.5
250,2022-02-21T04:09:00,0,静穏,0,北東,-2.1,92.8,0,0,1.5,13.5
251,2022-02-21T04:10:00,0,静穏,0,北東,-2.2,92.5,0,0,1.5,13.5
252,2022-02-21T04:11:00,0,静穏,0,北東,-2.2,92.3,0,0,1.5,13.5
253,2022-02-21T04:12:00,0,静穏,0,北東,-2.2,92.3,0,0,1.5,13.5
254,2022-02-21T04:13:00,0,静穏,0,北東,-2.3,92.3,0,0,1.5,13.5
255,2022-02-21T04:14:00,0,静穏,0,北東,-2.3,92.2,0,0,1.5,13.5
256,2022-02-21T04:15:00,0,静穏,0,北東,-2.5,91.9,0,0,1.5,13.5
257,2022-02-21T04:16:00,0,静穏,0,北東,-2.4,91.9,0,0,1.5,13.5
258,2022-02-21T04:17:00,0,静穏,0,北東,-2.4,92.2,0,0,1.5,13.5
259,2022-02-21T04:18:00,0,静穏,0,北東,-2.3,92.5,0,0,1.5,13.5
260,2022-02-21T04:19:00,0,静穏,0,北東,-2.3,92.7,0,0,1.5,13.5
261,2022-02-21T04:20:00,0,静穏,0,東北東,-2.4,92.6,0,0,1.5,13.5
262,2022-02-21T04:21:00,0,静穏,0,東北東,-2.4,92.2,0,0,1.5,13.5
263,2022-02-21T04:22:00,0,静穏,0,東北東,-2.5,92.4,0,0,1.5,13.5
264,2022-02-21T04:23:00,0,静穏,0,東北東,-2.6,91.7,0,0,1.5,13.5
265,2022-02-21T04:24:00,0,静穏,0,東北東,-2.5,91.9,0,0,1.5,13.5
266,2022-02-21T04:25:00,0,静穏,0,東北東,-2.4,92.5,0,0,1.5,13.5
267,2022-02-21T04:26:00,0,静穏,0,東北東,-2.1,93,0,0,1.5,13.5
268,2022-02-21T04:27:00,0,静穏,0,東北東,-2.1,93.5,0,0,1.5,13.5
269,2022-02-21T04:28:00,0,静穏,0,東北東,-2,93.6,0,0,1.5,13.5
270,2022-02-21T04:29:00,0,静穏,0,東北東,-2,93.5,0,0,1.5,13.5
271,2022-02-21T04:30:00,0,静穏,0,北東,-2,93.3,0,0,1.5,13.5
272,2022-02-21T04:31:00,0,静穏,0,北東,-2,93.2,0,0,1.5,13.5
273,2022-02-21T04:32:00,0,静穏,0,北東,-2,93.1,0,0,1.5,13.5
274,2022-02-21T04:33:00,0,静穏,0,北東,-2,93.1,0,0,1.5,13.5
275,2022-02-21T04:34:00,0,静穏,0,北東,-2.1,92.9,0,0,1.5,13.5
276,2022-02-21T04:35:00,0,静穏,0,北東,-2.2,92.4,0,0,1.5,13.5
277,2022-02-21T04:36:00,0,静穏,0,北東,-2.1,92.4,0,0,1.5,13.5
278,2022-02-21T04:37:00,0,静穏,0,北東,-2.1,92.6,0,0,1.5,13.5
279,2022-02-21T04:38:00,0,静穏,0,北東,-2,92.8,0,0,1.5,13.5
280,2022-02-21T04:39:00,0,静穏,0,北東,-1.9,93.1,0,0,1.5,13.5
281,2022-02-21T04:40:00,0,静穏,0,南東,-1.9,93.3,0,0,1.5,13.5
282,2022-02-21T04:41:00,0,静穏,0,南東,-1.8,93.4,0,0,1.5,13.5
283,2022-02-21T04:42:00,0,静穏,0,南東,-1.8,93.4,0,0,1.5,13.5
284,2022-02-21T04:43:00,0,静穏,0,南東,-1.7,93.4,0,0,1.5,13.5
285,2022-02-21T04:44:00,0,静穏,0,南東,-1.7,93.5,0,0,1.5,13.5
286,2022-02-21T04:45:00,0,静穏,0,南東,-1.6,93.6,0,0,1.5,13.5
287,2022-02-21T04:46:00,0,静穏,0,南東,-1.6,93.6,0,0,1.5,13.5
288,2022-02-21T04:47:00,0,静穏,0,南東,-1.5,93.6,0,0,1.5,13.5
289,2022-02-21T04:48:00,0,静穏,0,南東,-1.6,93.6,0,0,1.5,13.5
290,2022-02-21T04:49:00,0,静穏,0,南東,-2,92.8,0,0,1.5,13.5
291,2022-02-21T04:50:00,0,静穏,0,東南東,-1.9,92.1,0,0,1.5,13.5
292,2022-02-21T04:51:00,0,静穏,0,東南東,-1.8,92.7,0,0,1.5,13.5
293,2022-02-21T04:52:00,0,静穏,0,東南東,-1.8,93,0,0,1.5,13.5
294,2022-02-21T04:53:00,0,静穏,0,東南東,-1.8,93,0,0,1.5,13.5
295,2022-02-21T04:54:00,0,静穏,0,東南東,-1.9,92.8,0,0,1.5,13.5
296,2022-02-21T04:55:00,0,静穏,0,東南東,-1.9,92.4,0,0,1.5,13.5
297,2022-02-21T04:56:00,0,静穏,0,東南東,-1.9,92.8,0,0,1.5,13.5
298,2022-02-21T04:57:00,0,静穏,0,東南東,-1.9,92.9,0,0,1.5,13.5
299,2022-02-21T04:58:00,0,静穏,0,東南東,-1.9,92.9,0,0,1.5,13.5
300,2022-02-21T04:59:00,0,静穏,0,東南東,-1.9,92.9,0,0,1.5,13.5
301,2022-02-21T05:00:00,0,静穏,0,北,-1.9,93,0,0,1.5,13.5
302,2022-02-21T05:01:00,0,静穏,0,北,-1.9,93.2,0,0,1.5,13.5
303,2022-02-21T05:02:00,0,静穏,0,北,-1.9,93.1,0,0,1.5,13.5
304,2022-02-21T05:03:00,0,静穏,0,北,-1.9,93.1,0,0,1.5,13.5
305,2022-02-21T05:04:00,0,静穏,0,北,-2,93,0,0,1.5,13.5
306,2022-02-21T05:05:00,0,静穏,0,北,-2,92.8,0,0,1.5,13.5
307,2022-02-21T05:06:00,0,静穏,0,北,-1.9,93,0,0,1.5,13.5
308,2022-02-21T05:07:00,0,静穏,0,北,-1.9,93.1,0,0,1.5,13.5
309,2022-02-21T05:08:00,0,静穏,0,北,-1.8,93.3,0,0,1.5,13.5
310,2022-02-21T05:09:00,0,静穏,0,北,-1.8,93.5,0,0,1.5,13.5
311,2022-02-21T05:10:00,0,静穏,0,南西,-1.9,93.3,0,0,1.5,13.5
312,2022-02-21T05:11:00,0,静穏,0,南西,-1.9,93,0,0,1.5,13.5
313,2022-02-21T05:12:00,0,静穏,0,南西,-1.9,93,0,0,1.5,13.5
314,2022-02-21T05:13:00,0,静穏,0,南西,-1.9,93.1,0,0,1.5,13.5
315,2022-02-21T05:14:00,0,静穏,0,南西,-2.1,92.9,0,0,1.5,13.5
316,2022-02-21T05:15:00,0,静穏,0,南西,-2.2,92.4,0,0,1.5,13.5
317,2022-02-21T05:16:00,0,静穏,0,南西,-2.1,92.4,0,0,1.5,13.5
318,2022-02-21T05:17:00,0,静穏,0,南西,-2.2,92.8,0,0,1.5,13.5
319,2022-02-21T05:18:00,0,静穏,0,南西,-2.1,92.7,0,0,1.5,13.5
320,2022-02-21T05:19:00,0,静穏,0,南西,-1.9,93.2,0,0,1.5,13.5
321,2022-02-21T05:20:00,0,静穏,0,南西,-2,93.5,0,0,1.5,13.5
322,2022-02-21T05:21:00,0,静穏,0,南西,-2,93.4,0,0,1.5,13.5
323,2022-02-21T05:22:00,0,静穏,0,南西,-1.9,93.4,0,0,1.5,13.5
324,2022-02-21T05:23:00,0,静穏,0,南西,-1.9,93.6,0,0,1.5,13.5
325,2022-02-21T05:24:00,0,静穏,0,南西,-1.8,93.6,0,0,1.5,13.5
326,2022-02-21T05:25:00,0,静穏,0,南西,-1.8,93.6,0,0,1.5,13.5
327,2022-02-21T05:26:00,0,静穏,0,南西,-1.8,93.6,0,0,1.5,13.5
328,2022-02-21T05:27:00,0,静穏,0,南西,-1.7,93.7,0,0,1.5,13.5
329,2022-02-21T05:28:00,0,静穏,0,南西,-1.7,93.7,0,0,1.5,13.5
330,2022-02-21T05:29:00,0,静穏,0,南西,-1.7,93.7,0,0,1.5,13.5
331,2022-02-21T05:30:00,0,静穏,0,北東,-1.7,93.8,0,0,1.5,13.5
332,2022-02-21T05:31:00,0,静穏,0,北東,-1.6,93.7,0,0,1.5,13.5
333,2022-02-21T05:32:00,0,静穏,0,北東,-1.6,93.8,0,0,1.5,13.5
334,2022-02-21T05:33:00,0,静穏,0,北東,-1.6,93.7,0,0,1.5,13.5
335,2022-02-21T05:34:00,0,静穏,0,北東,-1.7,93.6,0,0,1.5,13.5
336,2022-02-21T05:35:00,0,静穏,0,北東,-1.7,93.5,0,0,1.5,13.5
337,2022-02-21T05:36:00,0,静穏,0,北東,-1.7,93.3,0,0,1.5,13.5
338,2022-02-21T05:37:00,0,静穏,0,北東,-1.7,93.3,0,0,1.5,13.5
339,2022-02-21T05:38:00,0,静穏,0,北東,-1.7,93.4,0,0,1.5,13.5
340,2022-02-21T05:39:00,0,静穏,0,北東,-1.6,93.5,0,0,1.5,13.5
341,2022-02-21T05:40:00,0,静穏,0,南西,-1.5,93.8,0,0,1.5,13.5
342,2022-02-21T05:41:00,0,静穏,0,南西,-1.6,93.9,0,0,1.5,13.5
343,2022-02-21T05:42:00,0,静穏,0,南西,-1.4,93.9,0,0,1.5,13.5
344,2022-02-21T05:43:00,0,静穏,0,南西,-1.3,94.3,0,0,1.5,13.5
345,2022-02-21T05:44:00,0,静穏,0.1,南南西,-1.3,94.3,0,0,1.5,13.5
346,2022-02-21T05:45:00,0,静穏,0.1,南南西,-1.3,94.2,0,0,1.5,13.5
347,2022-02-21T05:46:00,0,静穏,0.1,南南西,-1.3,94.2,0,0,1.5,13.5
348,2022-02-21T05:47:00,0,静穏,0.1,南南西,-1.3,94.2,0,0,1.5,13.5
349,2022-02-21T05:48:00,0,静穏,0.1,南南西,-1.3,94,0,0,1.5,13.5
350,2022-02-21T05:49:00,0,静穏,0.1,南南西,-1.3,94,0,0,1.5,13.5
351,2022-02-21T05:50:00,0,静穏,0.1,南南西,-1.3,93.9,0,0,1.5,13.5
352,2022-02-21T05:51:00,0,静穏,0.1,南南西,-1.2,94,0,0,1.5,13.5
353,2022-02-21T05:52:00,0,静穏,0.1,南南西,-1.1,94.1,0,0,1.5,13.5
354,2022-02-21T05:53:00,0,静穏,0.1,南南西,-1.2,94.2,0,0,1.5,13.5
355,2022-02-21T05:54:00,0,静穏,0,南南東,-1.2,94,0,0,1.5,13.5
356,2022-02-21T05:55:00,0,静穏,0,南南東,-1.2,93.9,0,0,1.5,13.5
357,2022-02-21T05:56:00,0,静穏,0,南南東,-1.2,93.8,0,0,1.5,13.5
358,2022-02-21T05:57:00,0,静穏,0,南南東,-1.2,93.8,0,0,1.5,13.5
359,2022-02-21T05:58:00,0,静穏,0,南南東,-1.3,93.8,0,0,1.5,13.5
360,2022-02-21T05:59:00,0,静穏,0,南南東,-1.3,93.7,0,0,1.5,13.5
361,2022-02-21T06:00:00,0,静穏,0,南南東,-1.3,93.6,0,0,1.5,13.5
362,2022-02-21T06:01:00,0,静穏,0,南南東,-1.3,93.7,0,0,1.5,13.5
363,2022-02-21T06:02:00,0,静穏,0,南南東,-1.4,93.6,0,0,1.5,13.5
364,2022-02-21T06:03:00,0,静穏,0,南南東,-1.4,93.6,0.5,0.5,2,14
365,2022-02-21T06:04:00,0,静穏,0,南南東,-1.3,93.6,0.5,0.5,2,14
366,2022-02-21T06:05:00,0,静穏,0,南南東,-1.4,93.7,0.5,0.5,2,14
367,2022-02-21T06:06:00,0,静穏,0,南南東,-1.4,93.6,0.5,0.5,2,14
368,2022-02-21T06:07:00,0,静穏,0,南南東,-1.4,93.7,0.5,0.5,2,14
369,2022-02-21T06:08:00,0,静穏,0,南南東,-1.4,93.7,0.5,0.5,2,14
370,2022-02-21T06:09:00,0,静穏,0,南南東,-1.4,93.7,0.5,0.5,2,14
371,2022-02-21T06:10:00,0,静穏,0,南南東,-1.4,93.7,0.5,0.5,2,14
372,2022-02-21T06:11:00,0,静穏,0,南南東,-1.4,93.7,0.5,0.5,2,14
373,2022-02-21T06:12:00,0,静穏,0,南南東,-1.4,93.7,0.5,0.5,2,14
374,2022-02-21T06:13:00,0,静穏,0,南南東,-1.4,93.7,0,0.5,2,14
375,2022-02-21T06:14:00,0,静穏,0,南南東,-1.4,93.7,0,0.5,2,14
376,2022-02-21T06:15:00,0,静穏,0,南南東,-1.4,93.7,0,0.5,2,14
377,2022-02-21T06:16:00,0,静穏,0,南南東,-1.4,93.8,0,0.5,2,14
378,2022-02-21T06:17:00,0,静穏,0,南南東,-1.4,93.7,0,0.5,2,14
379,2022-02-21T06:18:00,0,静穏,0,南南東,-1.4,93.8,0,0.5,2,14
380,2022-02-21T06:19:00,0,静穏,0,南南東,-1.4,93.6,0,0.5,2,14
381,2022-02-21T06:20:00,0,静穏,0,南南東,-1.4,93.6,0,0.5,2,14
382,2022-02-21T06:21:00,0,静穏,0,南南東,-1.4,93.7,0,0.5,2,14
383,2022-02-21T06:22:00,0,静穏,0,南南東,-1.4,93.7,0,0.5,2,14
384,2022-02-21T06:23:00,0,静穏,0,南南東,-1.5,93.6,0,0.5,2,14
385,2022-02-21T06:24:00,0,静穏,0,南西,-1.5,93.4,0,0.5,2,14
386,2022-02-21T06:25:00,0,静穏,0,南西,-1.6,93.3,0,0.5,2,14
387,2022-02-21T06:26:00,0,静穏,0,南西,-1.6,93.1,0,0.5,2,14
388,2022-02-21T06:27:00,0,静穏,0,南西,-1.6,93.2,0,0.5,2,14
389,2022-02-21T06:28:00,0,静穏,0,南西,-1.6,93.3,0,0.5,2,14
390,2022-02-21T06:29:00,0,静穏,0,南西,-1.6,93.2,0,0.5,2,14
391,2022-02-21T06:30:00,0,静穏,0,南西,-1.6,93.2,0,0.5,2,14
392,2022-02-21T06:31:00,0,静穏,0,南西,-1.6,93.3,0,0.5,2,14
393,2022-02-21T06:32:00,0,静穏,0,南西,-1.6,93.2,0,0.5,2,14
394,2022-02-21T06:33:00,0,静穏,0,南西,-1.6,93.4,0,0.5,2,14
395,2022-02-21T06:34:00,0,静穏,0,西南西,-1.6,93.5,0,0.5,2,14
396,2022-02-21T06:35:00,0,静穏,0,西南西,-1.6,93.5,0,0.5,2,14
397,2022-02-21T06:36:00,0,静穏,0,西南西,-1.7,93.4,0,0.5,2,14
398,2022-02-21T06:37:00,0,静穏,0,西南西,-1.7,93.1,0,0.5,2,14
399,2022-02-21T06:38:00,0,静穏,0,西南西,-1.8,92.9,0,0.5,2,14
400,2022-02-21T06:39:00,0,静穏,0,西南西,-1.8,92.8,0,0.5,2,14
401,2022-02-21T06:40:00,0,静穏,0,西南西,-1.7,93.1,0,0.5,2,14
402,2022-02-21T06:41:00,0,静穏,0,西南西,-1.7,93.3,0,0.5,2,14
403,2022-02-21T06:42:00,0,静穏,0,西南西,-1.8,93.2,0,0.5,2,14
404,2022-02-21T06:43:00,0,静穏,0,西南西,-1.7,93.2,0,0.5,2,14
405,2022-02-21T06:44:00,0,静穏,0,西南西,-1.7,93.4,0,0.5,2,14
406,2022-02-21T06:45:00,0,静穏,0,西南西,-1.7,93.4,0,0.5,2,14
407,2022-02-21T06:46:00,0,静穏,0,西南西,-1.6,93.6,0,0.5,2,14
408,2022-02-21T06:47:00,0,静穏,0,西南西,-1.7,93.6,0,0.5,2,14
409,2022-02-21T06:48:00,0,静穏,0,西南西,-1.6,93.6,0,0.5,2,14
410,2022-02-21T06:49:00,0,静穏,0,西南西,-1.5,93.8,0,0.5,2,14
411,2022-02-21T06:50:00,0,静穏,0,西南西,-1.4,93.9,0,0.5,2,14
412,2022-02-21T06:51:00,0,静穏,0,西南西,-1.4,93.9,0,0.5,2,14
413,2022-02-21T06:52:00,0,静穏,0,西南西,-1.5,93.9,0,0.5,2,14
414,2022-02-21T06:53:00,0,静穏,0,西南西,-1.6,93.5,0,0.5,2,14
415,2022-02-21T06:54:00,0,静穏,0,西,-1.6,93.3,0,0.5,2,14
416,2022-02-21T06:55:00,0,静穏,0,西,-1.6,93.3,0,0.5,2,14
417,2022-02-21T06:56:00,0,静穏,0,西,-1.5,93.5,0,0.5,2,14
418,2022-02-21T06:57:00,0,静穏,0,西,-1.5,93.7,0,0.5,2,14
419,2022-02-21T06:58:00,0,静穏,0,西,-1.5,93.8,0,0.5,2,14
420,2022-02-21T06:59:00,0,静穏,0,西,-1.4,93.9,0,0.5,2,14
421,2022-02-21T07:00:00,0,静穏,0,西,-1.3,93.9,0,0.5,2,14
422,2022-02-21T07:01:00,0,静穏,0,西,-1.3,94,0,0.5,2,14
423,2022-02-21T07:02:00,0,静穏,0,西,-1.3,93.9,0,0.5,2,14
424,2022-02-21T07:03:00,0,静穏,0,西,-1.3,93.9,0,0,2,14